Location: Dana
(41.8364°N, 106.7042°W)
Time: 14:11:47
(UTC+00:00)

Tiros 1 despin weight - Pass Details

Date: 19 May 2026
Orbit: 554 x 591 km, 48.2° (Epoch: 6 June)

Event Time Altitude Azimuth Distance (km) Brightness Sun altitude
Rises 08:47:27 0° 186° (S) 2,771 - -23.8°
Reaches altitude 10° 08:51:04 10° 154° (SSE) 1,868 - -23.5°
Maximum altitude 08:52:40 12° 132° (SE) 1,744 - -23.4°
Exits shadow 08:53:27 11° 121° (ESE) 1,772 ? -23.3°
Drops below altitude 10° 08:54:17 10° 110° (ESE) 1,864 ? -23.2°
Sets 08:57:52 0° 79° (ENE) 2,755 ? -22.9°
